Location: *
(51.1248°S, 108.4023°W)
Time: 22:55:07
(UTC+00:00)

Cosmos 1733 Rocket - Pass Details

Date: 15 June 2021
Orbit: 604 x 627 km, 82.5° (Epoch: 04 August)

Event Time Altitude Azimuth Distance (km) Brightness Sun altitude
Exits shadow 13:46:41 - 196° (SSW) 2,364 5.7 -13.1°
Reaches altitude 10° 13:47:33 10° 198° (SSW) 2,016 5.3 -13.0°
Maximum altitude 13:51:54 54° 275° (W) 762 3.2 -12.4°
Drops below altitude 10° 13:56:10 10° 351° (N) 1,976 5.8 -11.7°
Sets 13:58:24 0° 356° (N) 2,869 6.7 -11.4°
